| time (UTC) | temp F | wind direction | speed MPH | gust MPH | rain 1hr in | rain 24hr in | rain mn in | humidity % | barometer mb |
| 20260831052503 | 68 | 194 | 1.0 | 3.0 | 0.00 | 0.10 | 0.01 | 98 | 1016.4 |
| 20260831051741 | 68 | 194 | 2.0 | 3.0 | 0.01 | 0.10 | 0.01 | 98 | 1016.4 |
| 20260831051227 | 68 | 194 | 2.0 | 4.0 | 0.01 | 0.10 | 0.01 | 98 | 1016.3 |
| 20260831050726 | 68 | 194 | 2.0 | 4.0 | 0.01 | 0.10 | 0.01 | 98 | 1016.4 |
| 20260831050453 | 68 | 194 | 2.0 | 4.0 | 0.01 | 0.10 | 0.01 | 98 | 1016.4 |
| 20260831045709 | 68 | 195 | 1.0 | 4.0 | 0.01 | 0.10 | 0.01 | 98 | 1016.4 |
| 20260831045204 | 68 | 195 | 0.0 | 4.0 | 0.01 | 0.10 | 0.01 | 98 | 1016.6 |
| 20260831044708 | 68 | 195 | 2.0 | 4.0 | 0.02 | 0.10 | 0.01 | 98 | 1016.8 |
| 20260831044158 | 68 | 195 | 2.0 | 4.0 | 0.02 | 0.10 | 0.01 | 98 | 1016.8 |
| 20260831043915 | 68 | 195 | 2.0 | 3.0 | 0.03 | 0.10 | 0.01 | 98 | 1016.8 |
| 20260831043150 | 68 | 195 | 2.0 | 4.0 | 0.03 | 0.10 | 0.01 | 98 | 1017.0 |
| 20260831042652 | 68 | 195 | 1.0 | 4.0 | 0.03 | 0.10 | 0.01 | 98 | 1017.1 |
| 20260831042354 | 68 | 195 | 1.0 | 4.0 | 0.04 | 0.10 | 0.01 | 98 | 1017.0 |
| 20260831041628 | 68 | 195 | 0.0 | 2.0 | 0.03 | 0.09 | 0.00 | 98 | 1017.2 |
| 20260831041129 | 68 | 195 | 0.0 | 0.0 | 0.03 | 0.09 | 0.00 | 98 | 1017.7 |
| 20260831040631 | 68 | 195 | 0.0 | 0.0 | 0.03 | 0.09 | 0.00 | 98 | 1017.7 |
| 20260831040124 | 68 | 195 | 0.0 | 0.0 | 0.04 | 0.09 | 0.00 | 98 | 1017.9 |
| 20260831035628 | 68 | 195 | 0.0 | 0.0 | 0.04 | 0.09 | 0.09 | 98 | 1017.6 |
| 20260831035110 | 68 | 195 | 0.0 | 0.0 | 0.04 | 0.09 | 0.09 | 98 | 1017.4 |
| 20260831034602 | 68 | 195 | 0.0 | 0.0 | 0.03 | 0.08 | 0.08 | 98 | 1017.9 |
| 20260831034104 | 68 | 195 | 0.0 | 0.0 | 0.03 | 0.08 | 0.08 | 98 | 1017.8 |
| 20260831033558 | 68 | 195 | 0.0 | 0.0 | 0.02 | 0.07 | 0.07 | 98 | 1018.0 |
| 20260831033044 | 68 | 195 | 0.0 | 0.0 | 0.02 | 0.07 | 0.07 | 98 | 1017.9 |
| 20260831032515 | 68 | 195 | 0.0 | 0.0 | 0.02 | 0.07 | 0.07 | 98 | 1018.1 |
| 20260831032243 | 68 | 195 | 0.0 | 0.0 | 0.01 | 0.06 | 0.06 | 98 | 1018.2 |
| 20260831031512 | 68 | 195 | 0.0 | 0.0 | 0.01 | 0.06 | 0.06 | 98 | 1018.1 |
| 20260831031003 | 68 | 195 | 0.0 | 0.0 | 0.01 | 0.06 | 0.06 | 98 | 1017.6 |
| 20260831030506 | 68 | 195 | 0.0 | 0.0 | 0.00 | 0.05 | 0.05 | 98 | 1017.3 |
| 20260831025959 | 68 | 195 | 0.0 | 0.0 | 0.00 | 0.05 | 0.05 | 98 | 1017.3 |
| 20260831025429 | 68 | 195 | 0.0 | 0.0 | 0.00 | 0.05 | 0.05 | 98 | 1017.6 |
| 20260831024930 | 68 | 195 | 0.0 | 0.0 | 0.00 | 0.05 | 0.05 | 98 | 1017.4 |
| 20260831024432 | 68 | 195 | 0.0 | 3.0 | 0.00 | 0.05 | 0.05 | 98 | 1017.4 |
| 20260831023929 | 68 | 195 | 2.0 | 4.0 | 0.00 | 0.05 | 0.05 | 98 | 1017.6 |
| 20260831023922 | 68 | 195 | 3.0 | 4.0 | 0.00 | 0.05 | 0.05 | 98 | 1017.3 |
| 20260831023154 | 68 | 195 | 2.0 | 4.0 | 0.00 | 0.05 | 0.05 | 98 | 1017.4 |
| 20260831022422 | 68 | 195 | 0.0 | 4.0 | 0.00 | 0.05 | 0.05 | 98 | 1017.6 |
| 20260831021921 | 68 | 195 | 0.0 | 0.0 | 0.00 | 0.05 | 0.05 | 98 | 1017.7 |
| 20260831021624 | 69 | 195 | 0.0 | 0.0 | 0.00 | 0.05 | 0.05 | 98 | 1017.7 |
| 20260831020902 | 69 | 195 | 0.0 | 0.0 | 0.00 | 0.05 | 0.05 | 98 | 1017.7 |
| 20260831020626 | 69 | 195 | 0.0 | 0.0 | 0.00 | 0.05 | 0.05 | 98 | 1017.8 |
| 20260831015859 | 69 | 195 | 0.0 | 0.0 | 0.00 | 0.05 | 0.05 | 98 | 1017.9 |
| 20260831015329 | 69 | 195 | 0.0 | 0.0 | 0.00 | 0.05 | 0.05 | 98 | 1017.9 |
| 20260831014821 | 69 | 195 | 0.0 | 0.0 | 0.00 | 0.05 | 0.05 | 98 | 1018.0 |
| 20260831014319 | 69 | 195 | 0.0 | 0.0 | 0.00 | 0.05 | 0.05 | 98 | 1018.0 |
| 20260831014037 | 69 | 195 | 0.0 | 0.0 | 0.00 | 0.05 | 0.05 | 98 | 1018.0 |
| 20260831013802 | 69 | 195 | 0.0 | 0.0 | 0.00 | 0.05 | 0.05 | 98 | 1017.9 |
| 20260831013022 | 69 | 195 | 0.0 | 0.0 | 0.00 | 0.05 | 0.05 | 98 | 1017.9 |
| 20260831012256 | 69 | 195 | 0.0 | 0.0 | 0.00 | 0.05 | 0.05 | 98 | 1018.1 |
| 20260831011755 | 69 | 195 | 0.0 | 0.0 | 0.00 | 0.05 | 0.05 | 98 | 1018.2 |
| 20260831011252 | 69 | 195 | 0.0 | 0.0 | 0.00 | 0.05 | 0.05 | 98 | 1018.2 |
| 20260831010730 | 69 | 195 | 0.0 | 0.0 | 0.00 | 0.05 | 0.05 | 98 | 1018.3 |
| 20260831010227 | 70 | 195 | 0.0 | 0.0 | 0.00 | 0.05 | 0.05 | 98 | 1018.4 |
| 20260831005728 | 70 | 195 | 0.0 | 0.0 | 0.00 | 0.05 | 0.05 | 98 | 1018.6 |
| 20260831005224 | 70 | 195 | 0.0 | 0.0 | 0.00 | 0.05 | 0.05 | 98 | 1018.7 |
| 20260831004721 | 70 | 195 | 0.0 | 0.0 | 0.00 | 0.05 | 0.05 | 98 | 1018.7 |
| 20260831004221 | 70 | 195 | 0.0 | 0.0 | 0.00 | 0.05 | 0.05 | 98 | 1018.7 |
| 20260831003720 | 70 | 195 | 0.0 | 0.0 | 0.00 | 0.05 | 0.05 | 98 | 1018.5 |
| 20260831003658 | 70 | 195 | 0.0 | 0.0 | 0.00 | 0.05 | 0.05 | 98 | 1018.6 |
| 20260831002703 | 70 | 195 | 0.0 | 0.0 | 0.00 | 0.05 | 0.05 | 98 | 1018.6 |
| 20260831002201 | 70 | 195 | 0.0 | 0.0 | 0.00 | 0.05 | 0.05 | 98 | 1018.5 |
| 20260831001921 | 70 | 195 | 0.0 | 0.0 | 0.00 | 0.05 | 0.05 | 98 | 1018.4 |
| 20260831001159 | 70 | 195 | 0.0 | 0.0 | 0.00 | 0.05 | 0.05 | 98 | 1018.3 |
| 20260831000656 | 70 | 195 | 0.0 | 0.0 | 0.00 | 0.05 | 0.05 | 97 | 1018.1 |
| 20260831000151 | 70 | 195 | 0.0 | 0.0 | 0.00 | 0.05 | 0.05 | 97 | 1018.0 |
| 20260830235647 | 70 | 195 | 0.0 | 0.0 | 0.00 | 0.05 | 0.05 | 97 | 1018.0 |
| 20260830235137 | 70 | 195 | 0.0 | 0.0 | 0.00 | 0.05 | 0.05 | 97 | 1018.0 |
| 20260830234624 | 70 | 195 | 0.0 | 0.0 | 0.00 | 0.05 | 0.05 | 97 | 1017.8 |
| 20260830234105 | 70 | 195 | 0.0 | 0.0 | 0.00 | 0.05 | 0.05 | 97 | 1017.9 |
| 20260830233555 | 70 | 195 | 0.0 | 0.0 | 0.00 | 0.05 | 0.05 | 97 | 1017.9 |
| 20260830233517 | 70 | 195 | 0.0 | 0.0 | 0.00 | 0.05 | 0.05 | 97 | 1017.7 |
| 20260830232527 | 71 | 195 | 0.0 | 0.0 | 0.00 | 0.05 | 0.05 | 97 | 1017.4 |
| 20260830232006 | 70 | 195 | 0.0 | 0.0 | 0.00 | 0.05 | 0.05 | 97 | 1017.3 |
| 20260830231507 | 70 | 195 | 0.0 | 0.0 | 0.00 | 0.05 | 0.05 | 97 | 1017.3 |
| 20260830230956 | 71 | 195 | 0.0 | 0.0 | 0.00 | 0.05 | 0.05 | 96 | 1017.3 |
| 20260830230454 | 71 | 195 | 0.0 | 0.0 | 0.00 | 0.05 | 0.05 | 96 | 1017.3 |
| 20260830225952 | 71 | 195 | 0.0 | 0.0 | 0.00 | 0.05 | 0.05 | 96 | 1017.3 |
| 20260830225425 | 71 | 195 | 0.0 | 0.0 | 0.00 | 0.05 | 0.05 | 96 | 1017.3 |
| 20260830225149 | 71 | 195 | 0.0 | 0.0 | 0.00 | 0.05 | 0.05 | 96 | 1017.1 |
| 20260830224422 | 71 | 195 | 0.0 | 0.0 | 0.00 | 0.05 | 0.05 | 96 | 1017.0 |
| 20260830223917 | 71 | 195 | 0.0 | 0.0 | 0.00 | 0.05 | 0.05 | 96 | 1016.8 |
| 20260830223417 | 71 | 195 | 0.0 | 0.0 | 0.00 | 0.05 | 0.05 | 96 | 1016.8 |
| 20260830222921 | 71 | 195 | 0.0 | 0.0 | 0.00 | 0.05 | 0.05 | 96 | 1016.8 |
| 20260830222401 | 71 | 195 | 0.0 | 0.0 | 0.00 | 0.05 | 0.05 | 96 | 1016.9 |
| 20260830221905 | 71 | 195 | 0.0 | 0.0 | 0.00 | 0.05 | 0.05 | 95 | 1016.9 |
| 20260830221624 | 71 | 195 | 0.0 | 0.0 | 0.00 | 0.05 | 0.05 | 95 | 1017.0 |
| 20260830220859 | 71 | 195 | 0.0 | 0.0 | 0.00 | 0.05 | 0.05 | 95 | 1017.0 |
| 20260830220357 | 71 | 195 | 0.0 | 0.0 | 0.00 | 0.05 | 0.05 | 95 | 1017.1 |
| 20260830215850 | 72 | 195 | 0.0 | 0.0 | 0.00 | 0.05 | 0.05 | 95 | 1017.2 |
| 20260830215345 | 72 | 195 | 0.0 | 0.0 | 0.00 | 0.05 | 0.05 | 94 | 1017.0 |
| 20260830214845 | 72 | 195 | 0.0 | 0.0 | 0.00 | 0.05 | 0.05 | 94 | 1016.9 |
| 20260830214345 | 72 | 195 | 0.0 | 0.0 | 0.00 | 0.05 | 0.05 | 94 | 1016.7 |
| 20260830213836 | 72 | 195 | 0.0 | 0.0 | 0.00 | 0.05 | 0.05 | 94 | 1016.8 |
| 20260830213322 | 72 | 195 | 0.0 | 0.0 | 0.00 | 0.05 | 0.05 | 94 | 1016.9 |
| 20260830213043 | 72 | 195 | 0.0 | 0.0 | 0.00 | 0.05 | 0.05 | 94 | 1016.9 |
| 20260830212317 | 72 | 195 | 0.0 | 0.0 | 0.00 | 0.05 | 0.05 | 94 | 1016.9 |
| 20260830211810 | 72 | 195 | 0.0 | 0.0 | 0.00 | 0.05 | 0.05 | 94 | 1016.9 |
| 20260830211313 | 72 | 195 | 0.0 | 0.0 | 0.00 | 0.05 | 0.05 | 94 | 1017.0 |
| 20260830211030 | 72 | 195 | 0.0 | 0.0 | 0.00 | 0.05 | 0.05 | 94 | 1017.1 |
| 20260830210250 | 72 | 195 | 0.0 | 0.0 | 0.00 | 0.05 | 0.05 | 94 | 1017.3 |
| 20260830205959 | 71 | 195 | 0.0 | 0.0 | 0.00 | 0.05 | 0.05 | 94 | 1017.2 |
| 20260830205216 | 71 | 195 | 0.0 | 0.0 | 0.00 | 0.05 | 0.05 | 94 | 1017.2 |
| 20260830204707 | 71 | 195 | 0.0 | 1.0 | 0.00 | 0.05 | 0.05 | 93 | 1017.2 |
| 20260830204152 | 71 | 195 | 0.0 | 1.0 | 0.00 | 0.05 | 0.05 | 94 | 1017.4 |
| 20260830203646 | 71 | 195 | 0.0 | 0.0 | 0.00 | 0.05 | 0.05 | 94 | 1017.4 |
| 20260830203146 | 71 | 195 | 0.0 | 0.0 | 0.00 | 0.05 | 0.05 | 96 | 1017.4 |
| 20260830202644 | 71 | 195 | 0.0 | 0.0 | 0.00 | 0.05 | 0.05 | 96 | 1017.2 |
| 20260830202133 | 70 | 195 | 0.0 | 0.0 | 0.00 | 0.05 | 0.05 | 96 | 1017.2 |
| 20260830201616 | 70 | 195 | 0.0 | 0.0 | 0.00 | 0.05 | 0.05 | 96 | 1017.1 |
| 20260830201112 | 70 | 195 | 0.0 | 0.0 | 0.00 | 0.05 | 0.05 | 96 | 1017.1 |
| 20260830200557 | 70 | 196 | 0.0 | 0.0 | 0.00 | 0.05 | 0.05 | 96 | 1017.1 |
| 20260830200047 | 70 | 196 | 0.0 | 0.0 | 0.00 | 0.05 | 0.05 | 96 | 1017.0 |
| 20260830195745 | 70 | 196 | 0.0 | 0.0 | 0.00 | 0.05 | 0.05 | 96 | 1017.1 |
| 20260830195017 | 70 | 196 | 0.0 | 1.0 | 0.00 | 0.05 | 0.05 | 96 | 1017.1 |
| 20260830194521 | 70 | 196 | 0.0 | 1.0 | 0.00 | 0.05 | 0.05 | 96 | 1017.2 |
| 20260830194008 | 70 | 196 | 0.0 | 0.0 | 0.00 | 0.05 | 0.05 | 96 | 1017.2 |
| 20260830193505 | 70 | 196 | 0.0 | 0.0 | 0.01 | 0.05 | 0.05 | 96 | 1017.4 |
| 20260830192957 | 70 | 196 | 0.0 | 0.0 | 0.01 | 0.05 | 0.05 | 96 | 1017.6 |
| 20260830192451 | 70 | 196 | 0.0 | 0.0 | 0.01 | 0.05 | 0.05 | 96 | 1017.7 |
| 20260830192143 | 70 | 196 | 0.0 | 0.0 | 0.01 | 0.05 | 0.05 | 96 | 1017.8 |
| 20260830191650 | 70 | 196 | 0.0 | 0.0 | 0.01 | 0.05 | 0.05 | 96 | 1017.8 |
| 20260830190846 | 70 | 196 | 0.0 | 0.0 | 0.01 | 0.05 | 0.05 | 96 | 1017.9 |
| 20260830190345 | 70 | 196 | 0.0 | 0.0 | 0.01 | 0.05 | 0.05 | 96 | 1018.0 |
| 20260830185832 | 70 | 196 | 0.0 | 0.0 | 0.01 | 0.05 | 0.05 | 96 | 1018.1 |
| 20260830185331 | 70 | 196 | 0.0 | 0.0 | 0.02 | 0.05 | 0.05 | 95 | 1018.1 |
| 20260830184815 | 70 | 196 | 0.0 | 0.0 | 0.02 | 0.05 | 0.05 | 95 | 1018.3 |
| 20260830184539 | 70 | 196 | 0.0 | 0.0 | 0.02 | 0.05 | 0.05 | 95 | 1018.4 |
| 20260830183811 | 70 | 196 | 0.0 | 0.0 | 0.03 | 0.05 | 0.05 | 95 | 1018.4 |
| 20260830183308 | 70 | 196 | 0.0 | 0.0 | 0.02 | 0.04 | 0.04 | 95 | 1018.5 |
| 20260830183030 | 70 | 196 | 0.0 | 0.0 | 0.03 | 0.04 | 0.04 | 95 | 1018.6 |
| 20260830182522 | 70 | 196 | 0.0 | 0.0 | 0.03 | 0.04 | 0.04 | 94 | 1018.7 |
| 20260830181758 | 70 | 196 | 0.0 | 0.0 | 0.04 | 0.04 | 0.04 | 94 | 1018.8 |
| 20260830181247 | 70 | 196 | 0.0 | 0.0 | 0.04 | 0.04 | 0.04 | 94 | 1018.9 |
| 20260830180748 | 71 | 196 | 0.0 | 0.0 | 0.04 | 0.04 | 0.04 | 94 | 1019.1 |
| 20260830180240 | 71 | 196 | 0.0 | 0.0 | 0.04 | 0.04 | 0.04 | 94 | 1019.1 |
| 20260830175710 | 71 | 196 | 0.0 | 0.0 | 0.03 | 0.03 | 0.03 | 93 | 1019.1 |
| 20260830175200 | 71 | 196 | 0.0 | 4.0 | 0.03 | 0.03 | 0.03 | 93 | 1019.2 |
| 20260830174646 | 71 | 196 | 0.0 | 4.0 | 0.03 | 0.03 | 0.03 | 93 | 1019.4 |
| 20260830174141 | 71 | 195 | 0.0 | 0.0 | 0.03 | 0.03 | 0.03 | 92 | 1019.4 |
| 20260830173643 | 71 | 195 | 0.0 | 0.0 | 0.02 | 0.02 | 0.02 | 92 | 1019.5 |
| 20260830173114 | 71 | 195 | 0.0 | 0.0 | 0.02 | 0.02 | 0.02 | 91 | 1019.5 |
| 20260830172618 | 71 | 195 | 0.0 | 0.0 | 0.01 | 0.01 | 0.01 | 91 | 1019.4 |
| 20260830172109 | 71 | 194 | 0.0 | 0.0 | 0.01 | 0.01 | 0.01 | 90 | 1019.4 |
| 20260830171608 | 71 | 194 | 0.0 | 0.0 | 0.00 | 0.00 | 0.00 | 90 | 1019.3 |
| 20260830171039 | 71 | 194 | 0.0 | 0.0 | 0.00 | 0.00 | 0.00 | 89 | 1019.4 |
| 20260830170527 | 71 | 194 | 0.0 | 0.0 | 0.00 | 0.00 | 0.00 | 90 | 1019.4 |
| 20260830170017 | 71 | 194 | 0.0 | 0.0 | 0.00 | 0.00 | 0.00 | 90 | 1019.3 |
| 20260830165512 | 71 | 194 | 0.0 | 0.0 | 0.00 | 0.00 | 0.00 | 90 | 1019.4 |
| 20260830165009 | 71 | 194 | 0.0 | 0.0 | 0.00 | 0.00 | 0.00 | 90 | 1019.4 |
| 20260830164455 | 71 | 194 | 0.0 | 0.0 | 0.00 | 0.00 | 0.00 | 90 | 1019.4 |
| 20260830164157 | 71 | 194 | 0.0 | 0.0 | 0.00 | 0.00 | 0.00 | 90 | 1019.4 |
| 20260830163441 | 71 | 194 | 0.0 | 0.0 | 0.00 | 0.00 | 0.00 | 90 | 1019.4 |
| 20260830162922 | 71 | 194 | 0.0 | 0.0 | 0.00 | 0.00 | 0.00 | 90 | 1019.3 |
| 20260830162410 | 71 | 194 | 0.0 | 0.0 | 0.00 | 0.00 | 0.00 | 90 | 1019.4 |
| 20260830161911 | 71 | 194 | 0.0 | 0.0 | 0.00 | 0.00 | 0.00 | 90 | 1019.3 |
| 20260830161411 | 70 | 194 | 0.0 | 0.0 | 0.00 | 0.00 | 0.00 | 89 | 1019.3 |
| 20260830160910 | 70 | 194 | 0.0 | 0.0 | 0.00 | 0.00 | 0.00 | 89 | 1019.3 |
| 20260830160349 | 70 | 194 | 0.0 | 0.0 | 0.00 | 0.00 | 0.00 | 89 | 1019.4 |
| 20260830155844 | 70 | 194 | 0.0 | 0.0 | 0.00 | 0.00 | 0.00 | 90 | 1019.4 |
| 20260830155342 | 70 | 194 | 0.0 | 0.0 | 0.00 | 0.00 | 0.00 | 90 | 1019.5 |
| 20260830154836 | 70 | 194 | 0.0 | 0.0 | 0.00 | 0.00 | 0.00 | 90 | 1019.3 |
| 20260830154335 | 70 | 194 | 0.0 | 0.0 | 0.00 | 0.00 | 0.00 | 90 | 1019.3 |
| 20260830153812 | 70 | 194 | 0.0 | 0.0 | 0.00 | 0.00 | 0.00 | 90 | 1019.4 |
| 20260830153251 | 70 | 194 | 0.0 | 0.0 | 0.00 | 0.00 | 0.00 | 90 | 1019.4 |
| 20260830153006 | 70 | 194 | 0.0 | 0.0 | 0.00 | 0.00 | 0.00 | 88 | 1019.3 |
| 20260830152243 | 71 | 194 | 0.0 | 0.0 | 0.00 | 0.00 | 0.00 | 88 | 1019.2 |
| 20260830151741 | 71 | 194 | 0.0 | 0.0 | 0.00 | 0.00 | 0.00 | 87 | 1019.3 |
| 20260830151239 | 71 | 194 | 0.0 | 0.0 | 0.00 | 0.00 | 0.00 | 86 | 1019.4 |
| 20260830150734 | 71 | 194 | 0.0 | 0.0 | 0.00 | 0.00 | 0.00 | 84 | 1019.2 |
| 20260830150236 | 71 | 194 | 0.0 | 0.0 | 0.00 | 0.00 | 0.00 | 83 | 1019.1 |
| 20260830145944 | 71 | 194 | 0.0 | 0.0 | 0.00 | 0.00 | 0.00 | 82 | 1019.2 |
| 20260830145215 | 71 | 194 | 0.0 | 0.0 | 0.00 | 0.00 | 0.00 | 82 | 1019.1 |
| 20260830144712 | 71 | 194 | 0.0 | 0.0 | 0.00 | 0.00 | 0.00 | 83 | 1019.1 |
| 20260830144214 | 71 | 194 | 0.0 | 0.0 | 0.00 | 0.00 | 0.00 | 82 | 1019.1 |
| 20260830143708 | 71 | 194 | 0.0 | 0.0 | 0.00 | 0.00 | 0.00 | 83 | 1019.1 |
| 20260830143211 | 71 | 194 | 0.0 | 0.0 | 0.00 | 0.00 | 0.00 | 82 | 1019.0 |
| 20260830142652 | 71 | 194 | 0.0 | 0.0 | 0.00 | 0.00 | 0.00 | 83 | 1019.0 |
| 20260830142145 | 71 | 194 | 0.0 | 0.0 | 0.00 | 0.00 | 0.00 | 83 | 1019.0 |
| 20260830141636 | 71 | 194 | 0.0 | 0.0 | 0.00 | 0.00 | 0.00 | 82 | 1018.9 |
| 20260830141123 | 71 | 194 | 0.0 | 0.0 | 0.00 | 0.00 | 0.00 | 82 | 1018.8 |
| 20260830140552 | 71 | 194 | 0.0 | 0.0 | 0.00 | 0.00 | 0.00 | 82 | 1018.8 |
| 20260830140043 | 71 | 194 | 0.0 | 0.0 | 0.00 | 0.00 | 0.00 | 82 | 1018.8 |
| 20260830135534 | 71 | 194 | 0.0 | 0.0 | 0.00 | 0.00 | 0.00 | 82 | 1018.8 |
| 20260830135244 | 71 | 194 | 0.0 | 0.0 | 0.00 | 0.00 | 0.00 | 82 | 1018.7 |
| 20260830134742 | 71 | 194 | 0.0 | 0.0 | 0.00 | 0.00 | 0.00 | 82 | 1018.5 |
| 20260830133939 | 71 | 194 | 0.0 | 0.0 | 0.00 | 0.00 | 0.00 | 82 | 1018.4 |
| 20260830133418 | 71 | 194 | 0.0 | 0.0 | 0.00 | 0.00 | 0.00 | 82 | 1018.3 |
| 20260830132908 | 70 | 194 | 1.0 | 3.0 | 0.00 | 0.00 | 0.00 | 82 | 1018.2 |
| 20260830132403 | 70 | 194 | 1.0 | 3.0 | 0.00 | 0.00 | 0.00 | 82 | 1018.0 |
| 20260830131901 | 70 | 194 | 0.0 | 3.0 | 0.00 | 0.00 | 0.00 | 82 | 1017.9 |
| 20260830131351 | 70 | 194 | 2.0 | 4.0 | 0.00 | 0.00 | 0.00 | 82 | 1017.9 |
| 20260830130824 | 70 | 194 | 2.0 | 4.0 | 0.00 | 0.00 | 0.00 | 82 | 1017.8 |
| 20260830130315 | 70 | 194 | 2.0 | 4.0 | 0.00 | 0.00 | 0.00 | 82 | 1017.8 |
| 20260830125805 | 70 | 194 | 2.0 | 4.0 | 0.00 | 0.00 | 0.00 | 81 | 1017.8 |
| 20260830125513 | 70 | 194 | 2.0 | 4.0 | 0.00 | 0.00 | 0.00 | 81 | 1017.8 |
| 20260830124749 | 70 | 194 | 3.0 | 4.0 | 0.00 | 0.00 | 0.00 | 81 | 1017.9 |
| 20260830124248 | 70 | 194 | 2.0 | 4.0 | 0.00 | 0.00 | 0.00 | 81 | 1018.0 |
| 20260830123949 | 70 | 194 | 2.0 | 4.0 | 0.00 | 0.00 | 0.00 | 81 | 1018.1 |
| 20260830123202 | 70 | 194 | 2.0 | 3.0 | 0.00 | 0.00 | 0.00 | 81 | 1018.1 |
| 20260830122645 | 69 | 194 | 2.0 | 3.0 | 0.00 | 0.00 | 0.00 | 81 | 1018.0 |
| 20260830122144 | 70 | 194 | 2.0 | 3.0 | 0.00 | 0.00 | 0.00 | 81 | 1018.0 |
| 20260830121642 | 69 | 194 | 2.0 | 4.0 | 0.00 | 0.00 | 0.00 | 81 | 1017.9 |
| 20260830121130 | 69 | 194 | 2.0 | 4.0 | 0.00 | 0.00 | 0.00 | 81 | 1017.9 |
| 20260830120625 | 69 | 194 | 2.0 | 3.0 | 0.00 | 0.00 | 0.00 | 81 | 1017.9 |
| 20260830120120 | 69 | 194 | 2.0 | 3.0 | 0.00 | 0.00 | 0.00 | 81 | 1017.8 |
| 20260830115625 | 69 | 194 | 2.0 | 3.0 | 0.00 | 0.00 | 0.00 | 80 | 1017.8 |
| 20260830115103 | 69 | 194 | 2.0 | 4.0 | 0.00 | 0.00 | 0.00 | 80 | 1017.8 |
| 20260830114604 | 69 | 194 | 2.0 | 4.0 | 0.00 | 0.00 | 0.00 | 80 | 1017.7 |
| 20260830114102 | 69 | 194 | 2.0 | 3.0 | 0.00 | 0.00 | 0.00 | 79 | 1017.7 |
| 20260830113604 | 70 | 194 | 2.0 | 3.0 | 0.00 | 0.00 | 0.00 | 79 | 1017.7 |
| 20260830113054 | 70 | 194 | 2.0 | 3.0 | 0.00 | 0.00 | 0.00 | 78 | 1017.8 |
| 20260830112556 | 70 | 194 | 2.0 | 4.0 | 0.00 | 0.00 | 0.00 | 78 | 1017.7 |
| 20260830112044 | 70 | 194 | 2.0 | 4.0 | 0.00 | 0.00 | 0.00 | 78 | 1017.8 |
| 20260830111545 | 69 | 194 | 2.0 | 3.0 | 0.00 | 0.00 | 0.00 | 79 | 1017.8 |
| 20260830111030 | 69 | 194 | 2.0 | 3.0 | 0.00 | 0.00 | 0.00 | 79 | 1017.8 |
| 20260830110750 | 69 | 194 | 2.0 | 4.0 | 0.00 | 0.00 | 0.00 | 79 | 1017.8 |
| 20260830110024 | 69 | 194 | 2.0 | 4.0 | 0.00 | 0.00 | 0.00 | 79 | 1017.9 |
| 20260830105528 | 69 | 194 | 2.0 | 4.0 | 0.00 | 0.00 | 0.00 | 79 | 1017.9 |
| 20260830105002 | 69 | 194 | 2.0 | 4.0 | 0.00 | 0.00 | 0.00 | 79 | 1017.8 |
| 20260830104458 | 69 | 194 | 2.0 | 3.0 | 0.00 | 0.00 | 0.00 | 79 | 1017.8 |
| 20260830103932 | 69 | 194 | 2.0 | 3.0 | 0.00 | 0.00 | 0.00 | 79 | 1017.8 |
| 20260830103919 | 69 | 194 | 2.0 | 4.0 | 0.00 | 0.00 | 0.00 | 79 | 1017.8 |
| 20260830102927 | 69 | 194 | 2.0 | 4.0 | 0.00 | 0.00 | 0.00 | 79 | 1017.9 |
| 20260830102431 | 69 | 194 | 2.0 | 4.0 | 0.00 | 0.00 | 0.00 | 78 | 1018.0 |
| 20260830101914 | 69 | 194 | 2.0 | 3.0 | 0.00 | 0.00 | 0.00 | 78 | 1018.0 |
| 20260830101416 | 69 | 194 | 2.0 | 3.0 | 0.00 | 0.00 | 0.00 | 79 | 1018.1 |
| 20260830100904 | 69 | 194 | 2.0 | 3.0 | 0.00 | 0.00 | 0.00 | 79 | 1018.0 |
| 20260830100402 | 69 | 194 | 2.0 | 3.0 | 0.00 | 0.00 | 0.00 | 79 | 1018.1 |
| 20260830095857 | 69 | 194 | 2.0 | 3.0 | 0.00 | 0.00 | 0.00 | 79 | 1018.1 |
| 20260830095355 | 68 | 194 | 2.0 | 3.0 | 0.00 | 0.00 | 0.00 | 79 | 1018.0 |
| 20260830094853 | 68 | 194 | 2.0 | 3.0 | 0.00 | 0.00 | 0.00 | 79 | 1018.0 |
| 20260830094335 | 68 | 194 | 2.0 | 3.0 | 0.00 | 0.00 | 0.00 | 79 | 1018.1 |
| 20260830093834 | 68 | 194 | 2.0 | 3.0 | 0.00 | 0.00 | 0.00 | 79 | 1018.0 |
| 20260830093328 | 68 | 194 | 2.0 | 3.0 | 0.00 | 0.00 | 0.00 | 79 | 1018.1 |
| 20260830092817 | 68 | 194 | 2.0 | 3.0 | 0.00 | 0.00 | 0.00 | 79 | 1018.1 |
| 20260830092312 | 68 | 194 | 2.0 | 3.0 | 0.00 | 0.00 | 0.00 | 80 | 1018.1 |
| 20260830091803 | 68 | 194 | 2.0 | 3.0 | 0.00 | 0.00 | 0.00 | 80 | 1018.1 |
| 20260830091452 | 68 | 194 | 2.0 | 3.0 | 0.00 | 0.00 | 0.00 | 80 | 1018.1 |
| 20260830090732 | 68 | 194 | 2.0 | 3.0 | 0.00 | 0.00 | 0.00 | 79 | 1018.1 |
| 20260830090232 | 68 | 194 | 2.0 | 3.0 | 0.00 | 0.00 | 0.00 | 79 | 1018.1 |
| 20260830085716 | 68 | 194 | 2.0 | 3.0 | 0.00 | 0.00 | 0.00 | 79 | 1018.1 |
| 20260830085217 | 68 | 194 | 2.0 | 3.0 | 0.00 | 0.00 | 0.00 | 79 | 1018.0 |
| 20260830084704 | 68 | 194 | 2.0 | 3.0 | 0.00 | 0.00 | 0.00 | 79 | 1018.1 |
| 20260830084642 | 68 | 194 | 2.0 | 3.0 | 0.00 | 0.00 | 0.00 | 79 | 1018.1 |
| 20260830083657 | 68 | 194 | 2.0 | 3.0 | 0.00 | 0.00 | 0.00 | 79 | 1018.1 |
| 20260830083148 | 68 | 194 | 2.0 | 3.0 | 0.00 | 0.00 | 0.00 | 79 | 1018.0 |
| 20260830082710 | 68 | 194 | 2.0 | 3.0 | 0.00 | 0.00 | 0.00 | 80 | 1018.1 |
| 20260830081622 | 68 | 194 | 2.0 | 3.0 | 0.00 | 0.00 | 0.00 | 80 | 1018.2 |
| 20260830081401 | 68 | 194 | 2.0 | 3.0 | 0.00 | 0.00 | 0.00 | 80 | 1018.1 |
| 20260830080604 | 68 | 194 | 2.0 | 3.0 | 0.00 | 0.00 | 0.00 | 80 | 1018.1 |
| 20260830080100 | 68 | 194 | 0.0 | 3.0 | 0.00 | 0.00 | 0.00 | 80 | 1018.2 |
| 20260830075557 | 68 | 194 | 0.0 | 1.0 | 0.00 | 0.00 | 0.00 | 80 | 1018.3 |
| 20260830075054 | 68 | 194 | 0.0 | 1.0 | 0.00 | 0.00 | 0.00 | 80 | 1018.3 |
| 20260830074523 | 68 | 194 | 0.0 | 1.0 | 0.00 | 0.00 | 0.00 | 80 | 1018.3 |
| 20260830074025 | 68 | 194 | 0.0 | 1.0 | 0.00 | 0.00 | 0.00 | 80 | 1018.3 |
| 20260830073459 | 68 | 194 | 0.0 | 0.0 | 0.00 | 0.00 | 0.00 | 80 | 1018.3 |
| 20260830072959 | 68 | 194 | 0.0 | 0.0 | 0.00 | 0.00 | 0.00 | 80 | 1018.4 |
| 20260830072717 | 68 | 194 | 0.0 | 0.0 | 0.00 | 0.00 | 0.00 | 80 | 1018.4 |
| 20260830071925 | 68 | 194 | 0.0 | 0.0 | 0.00 | 0.00 | 0.00 | 80 | 1018.4 |
| 20260830071411 | 68 | 194 | 0.0 | 0.0 | 0.00 | 0.00 | 0.00 | 80 | 1018.4 |
| 20260830071131 | 68 | 194 | 0.0 | 0.0 | 0.00 | 0.00 | 0.00 | 80 | 1018.4 |
| 20260830070348 | 68 | 194 | 0.0 | 0.0 | 0.00 | 0.00 | 0.00 | 80 | 1018.5 |
| 20260830070009 | 68 | 194 | 0.0 | 0.0 | 0.00 | 0.00 | 0.00 | 80 | 1018.5 |
| 20260830065228 | 68 | 194 | 0.0 | 0.0 | 0.00 | 0.00 | 0.00 | 80 | 1018.6 |
| 20260830064704 | 68 | 194 | 0.0 | 0.0 | 0.00 | 0.00 | 0.00 | 80 | 1018.6 |
| 20260830064152 | 68 | 194 | 0.0 | 0.0 | 0.00 | 0.00 | 0.00 | 80 | 1018.6 |
| 20260830063638 | 67 | 194 | 0.0 | 0.0 | 0.00 | 0.00 | 0.00 | 81 | 1018.7 |
| 20260830063122 | 67 | 194 | 0.0 | 0.0 | 0.00 | 0.00 | 0.00 | 81 | 1018.8 |
| 20260830062608 | 67 | 194 | 0.0 | 0.0 | 0.00 | 0.00 | 0.00 | 81 | 1018.8 |
| 20260830062054 | 67 | 194 | 0.0 | 0.0 | 0.00 | 0.00 | 0.00 | 81 | 1018.9 |
| 20260830061813 | 67 | 194 | 0.0 | 0.0 | 0.00 | 0.00 | 0.00 | 81 | 1018.9 |
| 20260830061047 | 67 | 194 | 0.0 | 0.0 | 0.00 | 0.00 | 0.00 | 81 | 1018.9 |
| 20260830060805 | 67 | 194 | 0.0 | 0.0 | 0.00 | 0.00 | 0.00 | 81 | 1018.8 |
| 20260830060301 | 67 | 194 | 0.0 | 0.0 | 0.00 | 0.00 | 0.00 | 81 | 1018.9 |
| 20260830060011 | 67 | 194 | 0.0 | 0.0 | 0.00 | 0.00 | 0.00 | 81 | 1018.9 |
| 20260830055027 | 67 | 194 | 0.0 | 0.0 | 0.00 | 0.00 | 0.00 | 81 | 1019.0 |
| 20260830054744 | 67 | 194 | 0.0 | 0.0 | 0.00 | 0.00 | 0.00 | 81 | 1019.0 |
| 20260830054015 | 67 | 194 | 0.0 | 0.0 | 0.00 | 0.00 | 0.00 | 81 | 1019.0 |
| 20260830053509 | 68 | 194 | 0.0 | 0.0 | 0.00 | 0.00 | 0.00 | 81 | 1019.0 |
| 20260830053014 | 68 | 194 | 0.0 | 0.0 | 0.00 | 0.00 | 0.00 | 80 | 1019.0 |